TimeMST,TemperatureF,Dew PointF,Humidity,Sea Level PressureIn,VisibilityMPH,Wind Direction,Wind SpeedMPH,Gust SpeedMPH,PrecipitationIn,Events,Conditions,WindDirDegrees,DateUTC
12:15 AM,39.7,34.7,82,30.44,10.0,North,4.6,-,N/A,,Overcast,10,2013-11-24 07:15:00
12:35 AM,39.7,34.0,80,30.44,10.0,NNE,5.8,-,N/A,,Overcast,20,2013-11-24 07:35:00
12:55 AM,39.7,33.8,79,30.44,10.0,NNE,6.9,-,N/A,,Overcast,30,2013-11-24 07:55:00
1:15 AM,39.7,33.3,78,30.44,10.0,North,5.8,-,N/A,,Overcast,360,2013-11-24 08:15:00
1:35 AM,39.7,33.1,77,30.43,10.0,North,4.6,-,N/A,,Overcast,10,2013-11-24 08:35:00
1:55 AM,39.9,32.9,76,30.44,10.0,North,5.8,-,N/A,,Overcast,10,2013-11-24 08:55:00
2:15 AM,40.1,32.5,74,30.45,10.0,North,5.8,-,N/A,,Overcast,350,2013-11-24 09:15:00
2:35 AM,39.4,33.8,80,30.45,10.0,North,8.1,-,N/A,Rain,Rain,360,2013-11-24 09:35:00
2:55 AM,39.2,33.3,79,30.46,10.0,NNW,5.8,-,N/A,,Overcast,340,2013-11-24 09:55:00
3:15 AM,39.2,33.1,79,30.46,10.0,North,5.8,-,N/A,,Overcast,10,2013-11-24 10:15:00
3:35 AM,39.2,32.5,77,30.47,10.0,North,6.9,-,N/A,,Overcast,350,2013-11-24 10:35:00
3:55 AM,38.8,31.8,76,30.46,10.0,North,6.9,-,N/A,,Overcast,360,2013-11-24 10:55:00
4:15 AM,39.0,31.8,75,30.46,10.0,North,9.2,-,N/A,,Overcast,360,2013-11-24 11:15:00
4:35 AM,38.8,31.3,74,30.46,10.0,North,8.1,-,N/A,,Overcast,360,2013-11-24 11:35:00
4:55 AM,38.7,30.2,72,30.46,10.0,North,5.8,-,N/A,,Overcast,10,2013-11-24 11:55:00
5:15 AM,38.3,29.3,70,30.45,10.0,NNE,6.9,-,N/A,,Overcast,30,2013-11-24 12:15:00
5:35 AM,38.3,28.8,69,30.45,10.0,NNE,4.6,-,N/A,,Overcast,30,2013-11-24 12:35:00
5:55 AM,37.9,27.9,67,30.45,10.0,NNE,8.1,-,N/A,,Overcast,20,2013-11-24 12:55:00
6:15 AM,37.8,27.5,67,30.47,10.0,North,4.6,-,N/A,,Overcast,10,2013-11-24 13:15:00
6:35 AM,37.9,27.3,66,30.48,10.0,North,6.9,-,N/A,,Overcast,360,2013-11-24 13:35:00
6:55 AM,37.8,26.6,64,30.48,10.0,NNE,6.9,-,N/A,,Overcast,20,2013-11-24 13:55:00
7:15 AM,37.8,27.0,65,30.47,10.0,NNE,5.8,-,N/A,,Overcast,20,2013-11-24 14:15:00
7:35 AM,36.9,27.9,70,30.47,10.0,NNE,5.8,-,N/A,,Drizzle,30,2013-11-24 14:35:00
7:55 AM,36.3,30.0,78,30.48,4.0,NE,3.5,-,N/A,Rain,Rain,40,2013-11-24 14:55:00
8:15 AM,35.6,31.6,85,30.48,4.0,NE,3.5,-,0.03,Rain,Rain,40,2013-11-24 15:15:00
8:35 AM,35.1,31.6,87,30.47,5.0,NE,8.1,-,0.05,Rain,Light Rain,40,2013-11-24 15:35:00
8:55 AM,35.2,32.0,88,30.49,5.0,NNE,4.6,-,0.07,Rain,Rain,20,2013-11-24 15:55:00
9:15 AM,35.4,32.2,88,30.50,7.0,North,5.8,-,N/A,Rain,Light Rain,10,2013-11-24 16:15:00
9:35 AM,35.1,32.0,89,30.50,10.0,NNE,4.6,-,N/A,,Overcast,30,2013-11-24 16:35:00
9:55 AM,35.6,32.0,87,30.47,10.0,NNE,9.2,-,N/A,,Overcast,30,2013-11-24 16:55:00
10:15 AM,36.5,32.0,84,30.47,10.0,North,6.9,-,N/A,,Overcast,10,2013-11-24 17:15:00
10:35 AM,36.5,31.6,83,30.46,10.0,NNE,8.1,-,N/A,,Light Drizzle,30,2013-11-24 17:35:00
10:55 AM,36.5,31.8,83,30.45,10.0,North,4.6,-,N/A,,Light Drizzle,10,2013-11-24 17:55:00
11:15 AM,36.5,31.6,83,30.43,10.0,NNE,5.8,-,N/A,,Overcast,20,2013-11-24 18:15:00
11:35 AM,37.0,31.3,80,30.42,10.0,NE,9.2,-,N/A,,Overcast,50,2013-11-24 18:35:00
11:55 AM,37.6,31.6,79,30.39,10.0,NE,8.1,-,N/A,,Overcast,50,2013-11-24 18:55:00
12:15 PM,37.4,31.3,79,30.39,10.0,NNE,6.9,-,N/A,,Overcast,30,2013-11-24 19:15:00
12:35 PM,37.2,31.3,79,30.37,10.0,NNE,5.8,-,N/A,,Overcast,30,2013-11-24 19:35:00
12:55 PM,37.0,30.6,77,30.37,10.0,NNE,4.6,-,N/A,,Overcast,30,2013-11-24 19:55:00
1:15 PM,36.9,30.9,79,30.37,10.0,North,3.5,-,N/A,,Overcast,10,2013-11-24 20:15:00
1:35 PM,36.7,30.6,78,30.37,10.0,NNE,3.5,-,N/A,,Overcast,20,2013-11-24 20:35:00
1:55 PM,37.0,30.7,78,30.37,10.0,NNE,4.6,-,N/A,,Overcast,20,2013-11-24 20:55:00
2:15 PM,36.7,30.2,77,30.35,10.0,North,4.6,-,N/A,,Light Drizzle,10,2013-11-24 21:15:00
2:35 PM,36.7,30.2,77,30.35,10.0,NE,6.9,-,N/A,Rain,Light Rain,50,2013-11-24 21:35:00
2:55 PM,36.1,29.8,78,30.35,10.0,NE,5.8,-,N/A,,Overcast,40,2013-11-24 21:55:00
3:15 PM,36.0,29.5,77,30.36,10.0,NE,4.6,-,N/A,Rain,Light Rain,50,2013-11-24 22:15:00
3:35 PM,35.6,30.9,83,30.36,7.0,NE,5.8,-,N/A,Rain,Light Rain,40,2013-11-24 22:35:00
3:55 PM,34.7,31.1,87,30.36,10.0,NE,4.6,-,N/A,,Drizzle,50,2013-11-24 22:55:00
4:15 PM,34.5,31.5,89,30.35,10.0,NE,5.8,-,N/A,,Light Drizzle,50,2013-11-24 23:15:00
4:35 PM,34.3,31.8,90,30.35,10.0,NE,4.6,-,N/A,,Overcast,40,2013-11-24 23:35:00
4:55 PM,34.2,32.0,92,30.35,10.0,NE,5.8,-,N/A,,Overcast,40,2013-11-24 23:55:00
5:15 PM,34.3,32.0,91,30.34,10.0,NE,4.6,-,N/A,,Overcast,50,2013-11-25 00:15:00
5:35 PM,34.0,31.6,91,30.35,10.0,NNE,3.5,-,N/A,,Overcast,30,2013-11-25 00:35:00
5:55 PM,33.8,30.9,89,30.35,10.0,NE,4.6,-,N/A,,Overcast,50,2013-11-25 00:55:00
6:15 PM,34.0,30.6,87,30.35,10.0,Calm,Calm,-,N/A,,Overcast,0,2013-11-25 01:15:00
6:35 PM,33.6,30.2,87,30.34,7.0,ENE,4.6,-,N/A,,Overcast,60,2013-11-25 01:35:00
6:55 PM,33.6,30.7,89,30.33,7.0,NE,3.5,-,N/A,,Overcast,50,2013-11-25 01:55:00
7:15 PM,33.8,31.6,92,30.34,10.0,NNE,3.5,-,N/A,,Overcast,20,2013-11-25 02:15:00
7:35 PM,33.1,30.9,92,30.33,10.0,ENE,4.6,-,N/A,,Overcast,60,2013-11-25 02:35:00
7:55 PM,33.4,30.7,90,30.34,10.0,NE,3.5,-,N/A,Thunderstorm,Overcast,40,2013-11-25 02:55:00
8:15 PM,33.4,31.1,91,30.33,4.0,NE,3.5,-,N/A,,Drizzle,50,2013-11-25 03:15:00
8:35 PM,33.3,32.2,96,30.32,4.0,NE,3.5,-,N/A,,Light Drizzle,50,2013-11-25 03:35:00
8:55 PM,33.1,33.1,100,30.33,5.0,Calm,Calm,-,N/A,,Overcast,0,2013-11-25 03:55:00
9:15 PM,33.1,33.1,100,30.32,5.0,East,3.5,-,N/A,,Light Drizzle,90,2013-11-25 04:15:00
9:35 PM,32.9,32.9,100,30.32,5.0,East,3.5,-,N/A,Rain,Rain,100,2013-11-25 04:35:00
9:55 PM,32.9,32.9,100,30.32,2.5,Calm,Calm,-,0.02,Rain,Rain,0,2013-11-25 04:55:00
10:15 PM,32.5,32.5,100,30.32,3.0,ENE,4.6,-,0.03,,Overcast,60,2013-11-25 05:15:00
10:35 PM,32.5,32.5,100,30.33,7.0,Calm,Calm,-,0.04,,Overcast,0,2013-11-25 05:35:00
10:55 PM,32.5,32.5,100,30.32,7.0,Calm,Calm,-,0.05,Rain,Light Rain,0,2013-11-25 05:55:00
11:15 PM,32.7,32.7,100,30.32,2.5,Calm,Calm,-,0.01,,Heavy Drizzle,0,2013-11-25 06:15:00
11:35 PM,32.4,32.4,100,30.32,2.5,Calm,Calm,-,0.01,,Drizzle,0,2013-11-25 06:35:00
11:55 PM,32.7,32.7,100,30.31,4.0,Calm,Calm,-,0.01,,Drizzle,0,2013-11-25 06:55:00